{"data":{"norad_id":66758,"epoch":"2026-09-20T22:36:33.063840Z","epoch_age_seconds":79943,"freshness":"FRESH","line1":"1 66758U 25276CW  26263.94204935  .00003211  00000+0  14778-3 0  9995","line2":"2 66758  97.4104 336.0708 0001527  55.0853 305.0526 15.21034813 44981","mean_motion":15.21034813,"eccentricity":0.0001527,"inclination_deg":97.4104,"raan_deg":336.0708,"arg_perigee_deg":55.0853,"mean_anomaly_deg":305.0526,"bstar":0.00014778,"rev_number":4498,"period_min":94.672389329461,"perigee_km":501.66727976901,"apogee_km":503.76869288183,"semimajor_km":6880.8549863254,"source":"CELESTRAK","updated_at":"2026-09-21T09:00:16.181984Z"}}